This is the latest recevied weather packets stored in our database for station/object NC4M. If no packets are shown the sender has not sent any weather packets the latest 10 day(s).
| Time | Temp. | Humidity | Pressure | Rain* | Wind** | Luminosity | Snow |
|---|---|---|---|---|---|---|---|
| 1787610169 | 27.78° C | 61% | 1016.8 hPa | 0 mm | - | 167 W/m² | - |
| 1787609869 | 28.89° C | 62% | 1016.9 hPa | 0 mm | - | 131 W/m² | - |
| 1787609563 | 28.89° C | 60% | 1016.9 hPa | 0 mm | - | 289 W/m² | - |
| 1787609263 | 29.44° C | 60% | 1016.7 hPa | 0 mm | - | 417 W/m² | - |
| 1787608963 | 28.89° C | 63% | 1016.9 hPa | 0 mm | - | 448 W/m² | - |
| 1787608657 | 28.33° C | 63% | 1016.7 hPa | 0 mm | - | 433 W/m² | - |
| 1787608352 | 28.89° C | 60% | 1016.7 hPa | 0 mm | - | 419 W/m² | - |
| 1787608050 | 28.89° C | 62% | 1016.6 hPa | 0 mm | - | 380 W/m² | - |
| 1787607745 | 28.33° C | 62% | 1016.7 hPa | 0 mm | - | 441 W/m² | - |
| 1787607443 | 28.33° C | 64% | 1016.7 hPa | 0 mm | - | 459 W/m² | - |
| 1787607140 | 28.33° C | 61% | 1016.5 hPa | 0 mm | - | 484 W/m² | - |
| 1787606839 | 28.89° C | 62% | 1016.6 hPa | 0 mm | - | 503 W/m² | - |
| 1787606538 | 28.89° C | 62% | 1016.6 hPa | 0 mm | - | 526 W/m² | - |
| 1787606237 | 28.89° C | 58% | 1016.8 hPa | 0 mm | - | 590 W/m² | - |
| 1787605937 | 28.33° C | 61% | 1016.8 hPa | 0 mm | - | 538 W/m² | - |
| 1787605636 | 28.33° C | 60% | 1016.6 hPa | 0 mm | - | 308 W/m² | - |
| 1787605332 | 28.33° C | 60% | 1016.7 hPa | 0 mm | - | 356 W/m² | - |
| 1787605027 | 28.33° C | 63% | 1017 hPa | 0 mm | - | 576 W/m² | - |
| 1787604726 | 27.22° C | 62% | 1017 hPa | 0 mm | - | 629 W/m² | - |
| 1787604422 | 27.22° C | 63% | 1017.1 hPa | 0 mm | - | 455 W/m² | - |
| 1787604121 | 27.22° C | 67% | 1017 hPa | 0 mm | - | 255 W/m² | - |
| 1787603821 | 27.22° C | 65% | 1016.9 hPa | 0 mm | - | 216 W/m² | - |
| 1787603517 | 27.22° C | 66% | 1017 hPa | 0 mm | - | 240 W/m² | - |
| 1787603212 | 27.22° C | 64% | 1017 hPa | 0 mm | - | 270 W/m² | - |
| 1787602908 | 27.22° C | 64% | 1016.9 hPa | 0 mm | - | 226 W/m² | - |
* Rain latest hour (hover to see other rain measurements)
** Current wind speed in m/s (hover to see current wind gust speed)